USA 340

Last updated on Thu Nov 28 2024 00:02:45 GMT+0000 (Coordinated Universal Time)

1 55138U 22144E 24330.54702101 -.00000149 00000+0 00000+0 0 9990 2 55138 4.1731 65.5656 0001565 153.0614 328.2317 0.99553265 6062
UTC large
Height (km)
Speed (km/s)
/
Latitude / Longitude
Inclination (degrees)
Orbital Period (minutes)
Azimuth
Elevation
Range (km)
Doppler Factor

Next 0 passes for location: London (51.5072 / 0.1276)

Sorry there are no passes over London.
USA 340